Year,Month,Day,Hour,Minute,Value (Times are PST for temperature in C)
2012,07,01,00,00,13.20
2012,07,01,00,01,13.20
2012,07,01,00,02,13.20
2012,07,01,00,03,13.20
2012,07,01,00,04,13.20
2012,07,01,00,05,13.20
2012,07,01,00,06,13.20
2012,07,01,00,07,13.20
2012,07,01,00,08,13.20
2012,07,01,00,09,13.20
2012,07,01,00,10,13.20
2012,07,01,00,11,13.20
2012,07,01,00,12,13.20
2012,07,01,00,13,13.20
2012,07,01,00,14,13.20
2012,07,01,00,15,13.20
2012,07,01,00,16,13.20
2012,07,01,00,17,13.20
2012,07,01,00,18,13.20
2012,07,01,00,19,13.20
2012,07,01,00,20,13.20
2012,07,01,00,21,13.20
2012,07,01,00,22,13.20
2012,07,01,00,23,13.20
2012,07,01,00,24,13.20
2012,07,01,00,25,13.20
2012,07,01,00,26,13.20
2012,07,01,00,27,13.20
2012,07,01,00,28,13.20
2012,07,01,00,29,13.20
2012,07,01,00,30,13.20
2012,07,01,00,31,13.20
2012,07,01,00,32,13.20
2012,07,01,00,33,13.20
2012,07,01,00,34,13.20
2012,07,01,00,35,13.20
2012,07,01,00,36,13.20
2012,07,01,00,37,13.10
2012,07,01,00,38,13.10
2012,07,01,00,39,13.10
2012,07,01,00,40,13.10
2012,07,01,00,41,13.10
2012,07,01,00,42,13.10
2012,07,01,00,43,13.10
2012,07,01,00,44,13.10
2012,07,01,00,45,13.10
2012,07,01,00,46,13.10
2012,07,01,00,47,13.10
2012,07,01,00,48,13.10
2012,07,01,00,49,13.10
2012,07,01,00,50,13.10
2012,07,01,00,51,13.10
2012,07,01,00,52,13.00
2012,07,01,00,53,13.10
2012,07,01,00,54,13.00
2012,07,01,00,55,13.00
2012,07,01,00,56,13.00
2012,07,01,00,57,13.00
2012,07,01,00,58,12.90
2012,07,01,00,59,12.90
2012,07,01,01,00,12.90
2012,07,01,01,01,12.90
2012,07,01,01,02,12.90
2012,07,01,01,03,12.90
2012,07,01,01,04,12.80
2012,07,01,01,05,12.80
2012,07,01,01,06,12.80
2012,07,01,01,07,12.80
2012,07,01,01,08,12.80
2012,07,01,01,09,12.80
2012,07,01,01,10,12.80
2012,07,01,01,11,12.80
2012,07,01,01,12,12.80
2012,07,01,01,13,12.80
2012,07,01,01,14,12.80
2012,07,01,01,15,12.80
2012,07,01,01,16,12.80
2012,07,01,01,17,12.80
2012,07,01,01,18,12.80
2012,07,01,01,19,12.80
2012,07,01,01,20,12.70
2012,07,01,01,21,12.70
2012,07,01,01,22,12.70
2012,07,01,01,23,12.70
2012,07,01,01,24,12.70
2012,07,01,01,25,12.70
2012,07,01,01,26,12.70
2012,07,01,01,27,12.70
2012,07,01,01,28,12.70
2012,07,01,01,29,12.70
2012,07,01,01,30,12.70
2012,07,01,01,31,12.70
2012,07,01,01,32,12.70
2012,07,01,01,33,12.70
2012,07,01,01,34,12.70
2012,07,01,01,35,12.70
2012,07,01,01,36,12.70
2012,07,01,01,37,12.70
2012,07,01,01,38,12.70
2012,07,01,01,39,12.70
2012,07,01,01,40,12.70
2012,07,01,06,45,12.10
2012,07,01,06,46,12.20
2012,07,01,06,47,12.20
2012,07,01,06,48,12.20
2012,07,01,06,49,12.20
2012,07,01,06,50,12.20
2012,07,01,06,51,12.20
2012,07,01,06,52,12.20
2012,07,01,06,53,12.20
2012,07,01,06,54,12.20
2012,07,01,06,55,12.20
2012,07,01,06,56,12.20
2012,07,01,06,57,12.30
2012,07,01,06,58,12.30
2012,07,01,06,59,12.30
2012,07,01,07,00,12.30
2012,07,01,07,01,12.30
2012,07,01,07,02,12.30
2012,07,01,07,03,12.30
2012,07,01,07,04,12.30
2012,07,01,07,05,12.30
2012,07,01,07,06,12.30
2012,07,01,07,07,12.30
2012,07,01,07,08,12.30
2012,07,01,07,09,12.30
2012,07,01,07,10,12.40
2012,07,01,07,11,12.40
2012,07,01,07,12,12.40
2012,07,01,07,13,12.50
2012,07,01,07,14,12.50
2012,07,01,07,15,12.50
2012,07,01,07,16,12.60
2012,07,01,07,17,12.60
2012,07,01,07,18,12.60
2012,07,01,07,19,12.60
2012,07,01,07,20,12.60
2012,07,01,07,21,12.60
2012,07,01,07,22,12.60
2012,07,01,07,23,12.60
2012,07,01,07,24,12.60
2012,07,01,07,25,12.60
2012,07,01,07,26,12.60
2012,07,01,07,27,12.60
2012,07,01,07,28,12.60
2012,07,01,07,29,12.60
2012,07,01,07,30,12.70
2012,07,01,07,31,12.70
2012,07,01,07,32,12.70
2012,07,01,07,33,12.70
2012,07,01,07,34,12.70
2012,07,01,07,35,12.70
2012,07,01,07,36,12.70
2012,07,01,07,37,12.70
2012,07,01,07,38,12.70
2012,07,01,07,39,12.70
2012,07,01,07,40,12.80
2012,07,01,07,41,12.80
2012,07,01,07,42,12.80
2012,07,01,07,43,12.90
2012,07,01,07,44,12.90
2012,07,01,07,45,13.00
2012,07,01,07,46,13.00
2012,07,01,07,47,13.00
2012,07,01,07,48,13.10
2012,07,01,07,49,13.10
2012,07,01,07,50,13.10
2012,07,01,07,51,13.10
2012,07,01,07,52,13.10
2012,07,01,07,53,13.10
2012,07,01,07,54,13.10
2012,07,01,07,55,13.10
2012,07,01,07,56,13.10
2012,07,01,07,57,13.10
2012,07,01,07,58,13.10
2012,07,01,07,59,13.10
2012,07,01,08,00,13.10
2012,07,01,08,01,13.10
2012,07,01,08,02,13.10
2012,07,01,08,03,13.10
2012,07,01,08,04,13.10
2012,07,01,08,05,13.10
2012,07,01,08,06,13.10
2012,07,01,08,07,13.20
2012,07,01,08,08,13.20
2012,07,01,08,09,13.20
2012,07,01,08,10,13.20
2012,07,01,08,11,13.20
2012,07,01,08,12,13.20
2012,07,01,08,13,13.20
2012,07,01,08,14,13.20
2012,07,01,08,15,13.20
2012,07,01,08,16,13.20
2012,07,01,08,17,13.20
2012,07,01,08,18,13.30
2012,07,01,08,19,13.30
2012,07,01,08,20,13.30
2012,07,01,08,21,13.40
2012,07,01,08,22,13.40
2012,07,01,08,23,13.40
2012,07,01,08,24,13.50
2012,07,01,08,25,13.50
2012,07,01,08,26,13.60
2012,07,01,08,27,13.60
2012,07,01,08,28,13.60
2012,07,01,08,29,13.60
2012,07,01,08,30,13.60
2012,07,01,08,31,13.60
2012,07,01,08,32,13.60
2012,07,01,08,33,13.60
2012,07,01,08,34,13.60
2012,07,01,08,35,13.60
2012,07,01,08,36,13.70
2012,07,01,08,37,13.70
2012,07,01,08,38,13.70
2012,07,01,08,39,13.70
2012,07,01,08,40,13.70
2012,07,01,08,41,13.70
2012,07,01,08,42,13.70
2012,07,01,08,43,13.70
2012,07,01,08,44,13.70
2012,07,01,08,45,13.70
2012,07,01,08,46,13.60
2012,07,01,08,47,13.60
2012,07,01,08,48,13.60
2012,07,01,08,49,13.60
2012,07,01,08,50,13.60
2012,07,01,08,51,13.60
2012,07,01,08,52,13.70
2012,07,01,08,53,13.70
2012,07,01,08,54,13.70
2012,07,01,08,55,13.70
2012,07,01,08,56,13.70
2012,07,01,08,57,13.70
2012,07,01,08,58,13.70
2012,07,01,08,59,13.70
2012,07,01,09,00,13.80
2012,07,01,09,01,13.80
2012,07,01,09,02,13.80
2012,07,01,09,03,13.80
2012,07,01,09,04,13.90
2012,07,01,09,05,13.90
2012,07,01,09,06,13.90
2012,07,01,09,07,13.90
2012,07,01,09,08,13.90
2012,07,01,09,09,13.90
2012,07,01,09,10,13.90
2012,07,01,09,11,13.80
2012,07,01,09,12,13.80
2012,07,01,09,13,13.80
2012,07,01,09,14,13.80
2012,07,01,09,15,13.80
2012,07,01,09,16,13.90
2012,07,01,09,17,13.90
2012,07,01,09,18,13.90
2012,07,01,09,19,13.90
2012,07,01,09,20,13.90
2012,07,01,09,21,14.00
2012,07,01,09,22,14.00
2012,07,01,09,23,14.00
2012,07,01,09,24,13.90
2012,07,01,09,25,13.90
2012,07,01,09,26,13.90
2012,07,01,09,27,13.90
2012,07,01,09,28,13.90
2012,07,01,09,29,13.90
2012,07,01,09,30,13.90
2012,07,01,09,31,13.90
2012,07,01,09,32,13.90
2012,07,01,09,33,13.90
2012,07,01,09,34,13.90
2012,07,01,09,35,13.90
2012,07,01,09,36,13.90
2012,07,01,09,37,13.90
2012,07,01,09,38,13.90
2012,07,01,09,39,13.90
2012,07,01,09,40,14.00
2012,07,01,09,41,14.00
2012,07,01,09,42,13.90
2012,07,01,09,43,13.90
2012,07,01,09,44,13.90
2012,07,01,09,45,14.00
2012,07,01,09,46,14.00
2012,07,01,09,47,14.00
2012,07,01,09,48,14.00
2012,07,01,09,49,14.00
2012,07,01,09,50,14.00
2012,07,01,09,51,14.00
2012,07,01,09,52,13.90
2012,07,01,09,53,13.90
2012,07,01,09,54,14.00
2012,07,01,09,55,14.00
2012,07,01,09,56,14.00
2012,07,01,09,57,14.00
2012,07,01,09,58,14.10
2012,07,01,09,59,14.10
2012,07,01,10,00,14.10
2012,07,01,10,01,14.10
2012,07,01,10,02,14.10
2012,07,01,10,03,14.10
2012,07,01,10,04,14.20
2012,07,01,10,05,14.20
2012,07,01,10,06,14.30
2012,07,01,10,07,14.30
2012,07,01,10,08,14.30
2012,07,01,10,09,14.30
2012,07,01,10,10,14.30
2012,07,01,10,11,14.30
2012,07,01,10,12,14.30
2012,07,01,10,13,14.30
2012,07,01,10,14,14.30
2012,07,01,10,15,14.40
2012,07,01,10,16,14.40
2012,07,01,10,17,14.40
2012,07,01,10,18,14.50
2012,07,01,10,19,14.60
2012,07,01,10,20,14.70
2012,07,01,10,21,14.80
2012,07,01,10,22,14.80
2012,07,01,10,23,14.90
2012,07,01,10,24,15.00
2012,07,01,10,25,15.00
2012,07,01,10,26,15.00
2012,07,01,10,27,15.00
2012,07,01,10,28,14.90
2012,07,01,10,29,14.90
2012,07,01,10,30,14.90
2012,07,01,10,31,14.90
2012,07,01,10,32,15.00
2012,07,01,10,33,15.00
2012,07,01,10,34,15.00
2012,07,01,10,35,15.00
2012,07,01,10,36,15.00
2012,07,01,10,37,15.00
2012,07,01,10,38,15.00
2012,07,01,10,39,15.00
2012,07,01,10,40,15.00
2012,07,01,10,41,15.00
2012,07,01,10,42,15.00
2012,07,01,10,43,15.00
2012,07,01,10,44,15.00
2012,07,01,10,45,15.00
2012,07,01,10,46,14.90
2012,07,01,10,47,14.80
2012,07,01,10,48,14.80
2012,07,01,10,49,14.80
2012,07,01,10,50,14.80
2012,07,01,10,51,14.90
2012,07,01,10,52,14.90
2012,07,01,10,53,15.00
2012,07,01,10,54,15.00
2012,07,01,10,55,15.00
2012,07,01,10,56,15.00
2012,07,01,10,57,15.10
2012,07,01,10,58,15.20
2012,07,01,10,59,15.30
2012,07,01,11,00,15.40
2012,07,01,11,01,15.50
2012,07,01,11,02,15.60
2012,07,01,11,03,15.70
2012,07,01,11,04,15.70
2012,07,01,11,05,15.80
2012,07,01,11,06,15.80
2012,07,01,11,07,15.80
2012,07,01,11,08,15.80
2012,07,01,11,09,15.80
2012,07,01,11,10,15.80
2012,07,01,11,11,15.80
2012,07,01,11,12,15.80
2012,07,01,11,13,15.80
2012,07,01,11,14,15.80
2012,07,01,11,15,15.90
2012,07,01,11,16,15.90
2012,07,01,11,17,15.90
2012,07,01,11,18,15.90
2012,07,01,11,19,15.90
2012,07,01,11,20,15.90
2012,07,01,11,21,15.90
2012,07,01,11,22,15.90
2012,07,01,11,23,16.00
2012,07,01,11,24,16.10
2012,07,01,11,25,16.10
2012,07,01,11,26,16.10
2012,07,01,11,27,16.10
2012,07,01,11,28,16.00
2012,07,01,11,29,16.00
2012,07,01,11,30,16.00
2012,07,01,11,31,16.00
2012,07,01,11,32,16.00
2012,07,01,11,33,16.00
2012,07,01,11,34,16.00
2012,07,01,11,35,16.00
2012,07,01,11,36,16.00
2012,07,01,11,37,16.10
2012,07,01,11,38,16.10
2012,07,01,11,39,16.20
2012,07,01,11,40,16.20
2012,07,01,11,41,16.30
2012,07,01,11,42,16.30
2012,07,01,11,43,16.40
2012,07,01,11,44,16.40
2012,07,01,11,45,16.40
2012,07,01,11,46,16.50
2012,07,01,11,47,16.50
2012,07,01,11,48,16.60
2012,07,01,11,49,16.50
2012,07,01,11,50,16.50
2012,07,01,11,51,16.40
2012,07,01,11,52,16.50
2012,07,01,11,53,16.50
2012,07,01,11,54,16.60
2012,07,01,11,55,16.60
2012,07,01,11,56,16.70
2012,07,01,11,57,16.80
2012,07,01,11,58,16.80
2012,07,01,11,59,16.80
2012,07,01,12,00,16.80
2012,07,01,12,01,16.80
2012,07,01,12,02,16.80
2012,07,01,12,03,16.70
2012,07,01,12,04,16.60
2012,07,01,12,05,16.50
2012,07,01,12,06,16.50
2012,07,01,12,07,16.60
2012,07,01,12,08,16.60
2012,07,01,12,09,16.60
2012,07,01,12,10,16.60
2012,07,01,12,11,16.60
2012,07,01,12,12,16.70
2012,07,01,12,13,16.70
2012,07,01,12,14,16.80
2012,07,01,12,15,16.90
2012,07,01,12,16,17.00
2012,07,01,12,17,17.10
2012,07,01,12,18,17.20
2012,07,01,12,19,17.30
2012,07,01,12,20,17.20
2012,07,01,12,21,17.20
2012,07,01,12,22,17.20
2012,07,01,12,23,17.20
2012,07,01,12,24,17.10
2012,07,01,12,25,17.10
2012,07,01,12,26,17.10
2012,07,01,12,27,17.10
2012,07,01,12,28,17.10
2012,07,01,12,29,17.10
2012,07,01,12,30,17.20
2012,07,01,12,31,17.20
2012,07,01,12,32,17.30
2012,07,01,12,33,17.40
2012,07,01,12,34,17.50
2012,07,01,12,35,17.60
2012,07,01,12,36,17.70
2012,07,01,12,37,17.70
2012,07,01,12,38,17.70
2012,07,01,12,39,17.70
2012,07,01,12,40,17.60
2012,07,01,12,41,17.60
2012,07,01,12,42,17.50
2012,07,01,12,43,17.40
2012,07,01,12,44,17.20
2012,07,01,12,45,17.20
2012,07,01,12,46,17.20
2012,07,01,12,47,17.20
2012,07,01,12,48,17.10
2012,07,01,12,49,17.10
2012,07,01,12,50,17.10
2012,07,01,12,51,17.20
2012,07,01,12,52,17.30
2012,07,01,12,53,17.40
2012,07,01,12,54,17.40
2012,07,01,12,55,17.40
2012,07,01,12,56,17.40
2012,07,01,12,57,17.40
2012,07,01,12,58,17.40
2012,07,01,12,59,17.40
2012,07,01,13,00,17.40
2012,07,01,13,01,17.40
2012,07,01,13,02,17.50
2012,07,01,13,03,17.50
2012,07,01,13,04,17.50
2012,07,01,13,05,17.60
2012,07,01,13,06,17.70
2012,07,01,13,07,17.80
2012,07,01,13,08,17.80
2012,07,01,13,09,17.80
2012,07,01,13,10,17.80
2012,07,01,13,11,17.80
2012,07,01,13,12,17.90
2012,07,01,13,13,17.80
2012,07,01,13,14,17.70
2012,07,01,13,15,17.70
2012,07,01,13,16,17.60
2012,07,01,13,17,17.60
2012,07,01,13,18,17.60
2012,07,01,13,19,17.50
2012,07,01,13,20,17.50
2012,07,01,13,21,17.50
2012,07,01,13,22,17.50
2012,07,01,13,23,17.50
2012,07,01,13,24,17.50
2012,07,01,13,25,17.50
2012,07,01,13,26,17.50
2012,07,01,13,27,17.50
2012,07,01,13,28,17.50
2012,07,01,13,29,17.40
2012,07,01,13,30,17.40
2012,07,01,13,31,17.40
2012,07,01,13,32,17.40
2012,07,01,13,33,17.40
2012,07,01,13,34,17.40
2012,07,01,13,35,17.50
2012,07,01,13,36,17.50
2012,07,01,13,37,17.50
2012,07,01,13,38,17.60
2012,07,01,13,39,17.60
2012,07,01,13,40,17.60
2012,07,01,13,41,17.70
2012,07,01,13,42,17.70
2012,07,01,13,43,17.70
2012,07,01,13,44,17.70
2012,07,01,13,45,17.80
2012,07,01,13,46,17.90
2012,07,01,13,47,18.00
2012,07,01,13,48,18.10
2012,07,01,13,49,18.20
2012,07,01,13,50,18.30
2012,07,01,13,51,18.30
2012,07,01,13,52,18.30
2012,07,01,13,53,18.30
2012,07,01,13,54,18.30
2012,07,01,13,55,18.20
2012,07,01,13,56,18.00
2012,07,01,13,57,17.90
2012,07,01,13,58,17.90
2012,07,01,13,59,18.00
2012,07,01,14,00,18.10
2012,07,01,14,01,18.20
2012,07,01,14,02,18.30
2012,07,01,14,03,18.40
2012,07,01,14,04,18.50
2012,07,01,14,05,18.50
2012,07,01,14,06,18.50
2012,07,01,14,07,18.60
2012,07,01,14,08,18.50
2012,07,01,14,09,18.50
2012,07,01,14,10,18.40
2012,07,01,14,11,18.40
2012,07,01,14,12,18.40
2012,07,01,14,13,18.30
2012,07,01,14,14,18.30
2012,07,01,14,15,18.30
2012,07,01,14,16,18.30
2012,07,01,14,17,18.30
2012,07,01,14,18,18.30
2012,07,01,14,19,18.30
2012,07,01,14,20,18.30
2012,07,01,14,21,18.40
2012,07,01,14,22,18.40
2012,07,01,14,23,18.50
2012,07,01,14,24,18.60
2012,07,01,14,25,18.60
2012,07,01,14,26,18.60
2012,07,01,14,27,18.60
2012,07,01,14,28,18.50
2012,07,01,14,29,18.50
2012,07,01,14,30,18.40
2012,07,01,14,31,18.40
2012,07,01,14,32,18.30
2012,07,01,14,33,18.30
2012,07,01,14,34,18.30
2012,07,01,14,35,18.30
2012,07,01,14,36,18.30
2012,07,01,14,37,18.20
2012,07,01,14,38,18.20
2012,07,01,14,39,18.10
2012,07,01,14,40,18.10
2012,07,01,14,41,18.10
2012,07,01,14,42,18.10
2012,07,01,14,43,18.20
2012,07,01,14,44,18.20
2012,07,01,14,45,18.30
2012,07,01,14,46,18.40
2012,07,01,14,47,18.40
2012,07,01,14,48,18.40
2012,07,01,14,49,18.50
2012,07,01,14,50,18.50
2012,07,01,14,51,18.40
2012,07,01,14,52,18.40
2012,07,01,14,53,18.40
2012,07,01,14,54,18.40
2012,07,01,14,55,18.40
2012,07,01,14,56,18.40
2012,07,01,14,57,18.50
2012,07,01,14,58,18.60
2012,07,01,14,59,18.70
2012,07,01,15,00,18.70
2012,07,01,15,01,18.80
2012,07,01,15,02,18.90
2012,07,01,15,03,19.00
2012,07,01,15,04,19.00
2012,07,01,15,05,18.90
2012,07,01,15,06,18.90
2012,07,01,15,07,18.80
2012,07,01,15,08,18.90
2012,07,01,15,09,18.90
2012,07,01,15,10,18.90
2012,07,01,15,11,18.90
2012,07,01,15,12,18.90
2012,07,01,15,13,18.90
2012,07,01,15,14,18.90
2012,07,01,15,15,18.90
2012,07,01,15,16,18.90
2012,07,01,15,17,18.90
2012,07,01,15,18,18.80
2012,07,01,15,19,18.80
2012,07,01,15,20,18.70
2012,07,01,15,21,18.60
2012,07,01,15,22,18.60
2012,07,01,15,23,18.60
2012,07,01,15,24,18.60
2012,07,01,15,25,18.70
2012,07,01,15,26,18.70
2012,07,01,15,27,18.70
2012,07,01,15,28,18.70
2012,07,01,15,29,18.70
2012,07,01,15,30,18.70
2012,07,01,15,31,18.80
2012,07,01,15,32,18.80
2012,07,01,15,33,18.80
2012,07,01,15,34,18.80
2012,07,01,15,35,18.90
2012,07,01,15,36,18.90
2012,07,01,15,37,19.00
2012,07,01,15,38,19.10
2012,07,01,15,39,19.20
2012,07,01,15,40,19.10
2012,07,01,15,41,19.10
2012,07,01,15,42,19.00
2012,07,01,15,43,18.90
2012,07,01,15,44,19.00
2012,07,01,15,45,19.00
2012,07,01,15,46,19.00
2012,07,01,15,47,18.90
2012,07,01,15,48,18.90
2012,07,01,15,49,18.80
2012,07,01,15,50,18.80
2012,07,01,15,51,18.70
2012,07,01,15,52,18.70
2012,07,01,15,53,18.70
2012,07,01,15,54,18.70
2012,07,01,15,55,18.70
2012,07,01,15,56,18.70
2012,07,01,15,57,18.60
2012,07,01,15,58,18.60
2012,07,01,15,59,18.60
2012,07,01,16,00,18.60
2012,07,01,16,01,18.60
2012,07,01,16,02,18.60
2012,07,01,16,03,18.60
2012,07,01,16,04,18.60
2012,07,01,16,05,18.60
2012,07,01,16,06,18.70
2012,07,01,16,07,18.70
2012,07,01,16,08,18.80
2012,07,01,16,09,18.90
2012,07,01,16,10,18.90
2012,07,01,16,11,19.00
2012,07,01,16,12,19.00
2012,07,01,16,13,19.00
2012,07,01,16,14,19.10
2012,07,01,16,15,19.00
2012,07,01,16,16,18.90
2012,07,01,16,17,18.80
2012,07,01,16,18,18.80
2012,07,01,16,19,18.70
2012,07,01,16,20,18.70
2012,07,01,16,21,18.70
2012,07,01,16,22,18.70
2012,07,01,16,23,18.70
2012,07,01,16,24,18.80
2012,07,01,16,25,18.70
2012,07,01,16,26,18.70
2012,07,01,16,27,18.70
2012,07,01,16,28,18.60
2012,07,01,16,29,18.60
2012,07,01,16,30,18.70
2012,07,01,16,31,18.70
2012,07,01,16,32,18.70
2012,07,01,16,33,18.70
2012,07,01,16,34,18.80
2012,07,01,16,35,18.80
2012,07,01,16,36,18.80
2012,07,01,16,37,18.80
2012,07,01,16,38,18.90
2012,07,01,16,39,18.90
2012,07,01,16,40,18.90
2012,07,01,16,41,18.90
2012,07,01,16,42,18.80
2012,07,01,16,43,18.80
2012,07,01,16,44,18.70
2012,07,01,16,45,18.70
2012,07,01,16,46,18.70
2012,07,01,16,47,18.60
2012,07,01,16,48,18.60
2012,07,01,16,49,18.60
2012,07,01,16,50,18.60
2012,07,01,16,51,18.60
2012,07,01,16,52,18.60
2012,07,01,16,53,18.60
2012,07,01,16,54,18.70
2012,07,01,16,55,18.70
2012,07,01,16,56,18.80
2012,07,01,16,57,18.80
2012,07,01,16,58,18.90
2012,07,01,16,59,18.90
2012,07,01,17,00,18.90
2012,07,01,17,01,18.90
2012,07,01,17,02,18.90
2012,07,01,17,03,18.80
2012,07,01,17,04,18.80
2012,07,01,17,05,18.80
2012,07,01,17,06,18.70
2012,07,01,17,07,18.60
2012,07,01,17,08,18.60
2012,07,01,17,09,18.50
2012,07,01,17,10,18.40
2012,07,01,17,11,18.40
2012,07,01,17,12,18.40
2012,07,01,17,13,18.40
2012,07,01,17,14,18.40
2012,07,01,17,15,18.30
2012,07,01,17,16,18.20
2012,07,01,17,17,18.20
2012,07,01,17,18,18.20
2012,07,01,17,19,18.20
2012,07,01,17,20,18.30
2012,07,01,17,21,18.40
2012,07,01,17,22,18.50
2012,07,01,17,23,18.50
2012,07,01,17,24,18.60
2012,07,01,17,25,18.60
2012,07,01,17,26,18.60
2012,07,01,17,27,18.60
2012,07,01,17,28,18.60
2012,07,01,17,29,18.60
2012,07,01,17,30,18.60
2012,07,01,17,31,18.60
2012,07,01,17,32,18.60
2012,07,01,17,33,18.60
2012,07,01,17,34,18.70
2012,07,01,17,35,18.70
2012,07,01,17,36,18.70
2012,07,01,17,37,18.70
2012,07,01,17,38,18.70
2012,07,01,17,39,18.60
2012,07,01,17,40,18.60
2012,07,01,17,41,18.60
2012,07,01,17,42,18.60
2012,07,01,17,43,18.60
2012,07,01,17,44,18.70
2012,07,01,17,45,18.70
2012,07,01,17,46,18.70
2012,07,01,17,47,18.70
2012,07,01,17,48,18.60
2012,07,01,17,49,18.60
2012,07,01,17,50,18.50
2012,07,01,17,51,18.40
2012,07,01,17,52,18.40
2012,07,01,17,53,18.30
2012,07,01,17,54,18.30
2012,07,01,17,55,18.30
2012,07,01,17,56,18.20
2012,07,01,17,57,18.20
2012,07,01,17,58,18.10
2012,07,01,17,59,18.10
2012,07,01,18,00,18.10
2012,07,01,18,01,18.00
2012,07,01,18,02,18.00
2012,07,01,18,03,18.00
2012,07,01,18,04,18.00
2012,07,01,18,05,17.90
2012,07,01,18,06,17.90
2012,07,01,18,07,17.80
2012,07,01,18,08,17.80
2012,07,01,18,09,17.80
2012,07,01,18,10,17.90
2012,07,01,18,11,17.90
2012,07,01,18,12,18.00
2012,07,01,18,13,18.00
2012,07,01,18,14,17.90
2012,07,01,18,15,17.90
2012,07,01,18,16,17.90
2012,07,01,18,17,17.90
2012,07,01,18,18,17.90
2012,07,01,18,19,17.90
2012,07,01,18,20,17.80
2012,07,01,18,21,17.70
2012,07,01,18,22,17.70
2012,07,01,18,23,17.60
2012,07,01,18,24,17.60
2012,07,01,18,25,17.60
2012,07,01,18,26,17.60
2012,07,01,18,27,17.60
2012,07,01,18,28,17.60
2012,07,01,18,29,17.60
2012,07,01,18,30,17.50
2012,07,01,18,31,17.40
2012,07,01,18,32,17.30
2012,07,01,18,33,17.20
2012,07,01,18,34,17.20
2012,07,01,18,35,17.10
2012,07,01,18,36,17.10
2012,07,01,18,37,17.10
2012,07,01,18,38,17.10
2012,07,01,18,39,17.10
2012,07,01,18,40,17.00
2012,07,01,18,41,17.00
2012,07,01,18,42,17.00
2012,07,01,18,43,17.00
2012,07,01,18,44,17.00
2012,07,01,18,45,17.00
2012,07,01,18,46,16.90
2012,07,01,18,47,16.90
2012,07,01,18,48,16.80
2012,07,01,18,49,16.80
2012,07,01,18,50,16.80
2012,07,01,18,51,16.70
2012,07,01,18,52,16.70
2012,07,01,18,53,16.70
2012,07,01,18,54,16.70
2012,07,01,18,55,16.60
2012,07,01,18,56,16.60
2012,07,01,18,57,16.60
2012,07,01,18,58,16.60
2012,07,01,18,59,16.50
2012,07,01,19,00,16.50
2012,07,01,19,01,16.40
2012,07,01,19,02,16.40
2012,07,01,19,03,16.40
2012,07,01,19,04,16.50
2012,07,01,19,05,16.50
2012,07,01,19,06,16.60
2012,07,01,19,07,16.60
2012,07,01,19,08,16.60
2012,07,01,19,09,16.60
2012,07,01,19,10,16.60
2012,07,01,19,11,16.60
2012,07,01,19,12,16.50
2012,07,01,19,13,16.50
2012,07,01,19,14,16.50
2012,07,01,19,15,16.50
2012,07,01,19,16,16.50
2012,07,01,19,17,16.50
2012,07,01,19,18,16.50
2012,07,01,19,19,16.40
2012,07,01,19,20,16.40
2012,07,01,19,21,16.40
2012,07,01,19,22,16.30
2012,07,01,19,23,16.30
2012,07,01,19,24,16.40
2012,07,01,19,25,16.40
2012,07,01,19,26,16.40
2012,07,01,19,27,16.40
2012,07,01,19,28,16.40
2012,07,01,19,29,16.40
2012,07,01,19,30,16.40
2012,07,01,19,31,16.30
2012,07,01,19,32,16.30
2012,07,01,19,33,16.30
2012,07,01,19,34,16.30
2012,07,01,19,35,16.30
2012,07,01,19,36,16.30
2012,07,01,19,37,16.30
2012,07,01,19,38,16.30
2012,07,01,19,39,16.30
2012,07,01,19,40,16.30
2012,07,01,19,41,16.20
2012,07,01,19,42,16.20
2012,07,01,19,43,16.10
2012,07,01,19,44,16.10
2012,07,01,19,45,16.00
2012,07,01,19,46,16.00
2012,07,01,19,47,15.90
2012,07,01,19,48,15.80
2012,07,01,19,49,15.80
2012,07,01,19,50,15.80
2012,07,01,19,51,15.70
2012,07,01,19,52,15.70
2012,07,01,19,53,15.60
2012,07,01,19,54,15.60
2012,07,01,19,55,15.60
2012,07,01,19,56,15.60
2012,07,01,19,57,15.50
2012,07,01,19,58,15.50
2012,07,01,19,59,15.40
2012,07,01,20,00,15.40
2012,07,01,20,01,15.40
2012,07,01,20,02,15.40
2012,07,01,20,03,15.30
2012,07,01,20,04,15.30
2012,07,01,20,05,15.30
2012,07,01,20,06,15.30
2012,07,01,20,07,15.30
2012,07,01,20,08,15.20
2012,07,01,20,09,15.20
2012,07,01,20,10,15.20
2012,07,01,20,11,15.10
2012,07,01,20,12,15.00
2012,07,01,20,13,15.00
2012,07,01,20,14,15.00
2012,07,01,20,15,15.00
2012,07,01,20,16,15.00
2012,07,01,20,17,15.00
2012,07,01,20,18,15.00
2012,07,01,20,19,15.00
2012,07,01,20,20,15.00
2012,07,01,20,21,15.00
2012,07,01,20,22,15.00
2012,07,01,20,23,15.00
2012,07,01,20,24,15.00
2012,07,01,20,25,14.90
2012,07,01,20,26,14.90
2012,07,01,20,27,14.90
2012,07,01,20,28,14.80
2012,07,01,20,29,14.80
2012,07,01,20,30,14.80
2012,07,01,20,31,14.80
2012,07,01,20,32,14.80
2012,07,01,20,33,14.80
2012,07,01,20,34,14.80
2012,07,01,20,35,14.80
2012,07,01,20,36,14.70
2012,07,01,20,37,14.70
2012,07,01,20,38,14.70
2012,07,01,20,39,14.70
2012,07,01,20,40,14.60
2012,07,01,20,41,14.60
2012,07,01,20,42,14.60
2012,07,01,20,43,14.60
2012,07,01,20,44,14.60
2012,07,01,20,45,14.50
2012,07,01,20,46,14.50
2012,07,01,20,47,14.50
2012,07,01,20,48,14.40
2012,07,01,20,49,14.40
2012,07,01,20,50,14.40
2012,07,01,20,51,14.40
2012,07,01,20,52,14.40
2012,07,01,20,53,14.40
2012,07,01,20,54,14.40
2012,07,01,20,55,14.40
2012,07,01,20,56,14.40
2012,07,01,20,57,14.30
2012,07,01,20,58,14.30
2012,07,01,20,59,14.30
2012,07,01,21,00,14.30
2012,07,01,21,01,14.30
2012,07,01,21,02,14.30
2012,07,01,21,03,14.30
2012,07,01,21,04,14.30
2012,07,01,21,05,14.30
2012,07,01,21,06,14.30
2012,07,01,21,07,14.30
2012,07,01,21,08,14.20
2012,07,01,21,09,14.20
2012,07,01,21,10,14.20
2012,07,01,21,11,14.20
2012,07,01,21,12,14.20
2012,07,01,21,13,14.20
2012,07,01,21,14,14.20
2012,07,01,21,15,14.10
2012,07,01,21,16,14.10
2012,07,01,21,17,14.10
2012,07,01,21,18,14.10
2012,07,01,21,19,14.10
2012,07,01,21,20,14.10
2012,07,01,21,21,14.10
2012,07,01,21,22,14.10
2012,07,01,21,23,14.00
2012,07,01,21,24,14.00
2012,07,01,21,25,14.00
2012,07,01,21,26,14.00
2012,07,01,21,27,14.00
2012,07,01,21,28,14.00
2012,07,01,21,29,14.00
2012,07,01,21,30,14.00
2012,07,01,21,31,13.90
2012,07,01,21,32,13.90
2012,07,01,21,33,13.90
2012,07,01,21,34,13.90
2012,07,01,21,35,13.90
2012,07,01,21,36,13.90
2012,07,01,21,37,13.90
2012,07,01,21,38,13.90
2012,07,01,21,39,13.90
2012,07,01,21,40,13.90
2012,07,01,21,41,13.90
2012,07,01,21,42,13.90
2012,07,01,21,43,13.80
2012,07,01,21,44,13.80
2012,07,01,21,45,13.80
2012,07,01,21,46,13.80
2012,07,01,21,47,13.80
2012,07,01,21,48,13.80
2012,07,01,21,49,13.80
2012,07,01,21,50,13.80
2012,07,01,21,51,13.80
2012,07,01,21,52,13.70
2012,07,01,21,53,13.70
2012,07,01,21,54,13.70
2012,07,01,21,55,13.70
2012,07,01,21,56,13.70
2012,07,01,21,57,13.70
2012,07,01,21,58,13.70
2012,07,01,21,59,13.70
2012,07,01,22,00,13.70
2012,07,01,22,01,13.70
2012,07,01,22,02,13.70
2012,07,01,22,03,13.60
2012,07,01,22,04,13.60
2012,07,01,22,05,13.60
2012,07,01,22,06,13.60
2012,07,01,22,07,13.60
2012,07,01,22,08,13.50
2012,07,01,22,09,13.50
2012,07,01,22,10,13.50
2012,07,01,22,11,13.40
2012,07,01,22,12,13.40
2012,07,01,22,13,13.40
2012,07,01,22,14,13.30
2012,07,01,22,15,13.30
2012,07,01,22,16,13.30
2012,07,01,22,17,13.20
2012,07,01,22,18,13.20
2012,07,01,22,19,13.10
2012,07,01,22,20,13.10
2012,07,01,22,21,13.00
2012,07,01,22,22,13.00
2012,07,01,22,23,12.90